Погода в Нижнем Сыпе

Россия / Пермский край     56°58′09″N   56°34′16″E
темп.,
°C
ветер,
м/с
пор.,
м/с
влажн.,
%
обл.,
%
осадки,
мм/ч
давл.,
гПа
погр.,
м
17 апреля, сб
сб1723:00+4ссв410665 0.0 1028258
02:00+2ссв38735 0.0 1028193
05:000с36775 0.0 1028123
08:00+2ссв48605 0.0 1028278
11:00+6ссв46405 0.0 1028774
14:00+9ссв44395 0.0 10261217
17:00+10с34395 0.0 10251462
20:00+7ссз22565 0.0 102424
18 апреля, вс
вс1823:00+4зсз246916 0.0 102470
02:00+3зсз28765 0.0 1023135
05:00+2зсз38810 0.0 1023164
08:00+4ссз410785 0.0 1023652
11:00+4ссв585844 0.1 10251140
14:00+6св673940 0.0 10271895
17:00+5всв673496 0.0 10282111
20:00+3всв610405 0.0 1030628
19 апреля, пн
пн1923:000в411470 0.0 1032464
02:00−1в411480 0.0 1034488
05:00−2в49460 0.0 1036451
08:00−1в58365 0.0 1037806
11:00+2в57240 0.0 10371470
14:00+4в56240 0.0 10361710
17:00+4всв45270 0.0 10361716
20:00+2всв22430 0.0 103632
20 апреля, вт
вт2023:00−1в11490 0.0 103710
02:00−1ю00490 0.0 103710
05:00−2юз11510 0.0 103810
08:00+1зюз12403 0.0 1038182
11:00+5сз12295 0.0 10371021
14:00+8сз22280 0.0 10351300
17:00+9сз23285 0.0 10341368
20:00+5сз22470 0.0 103317
21 апреля, ср
ср2123:00+3зсз11520 0.0 103410
02:00+1з11550 0.0 103410
05:00+1зюз11560 0.0 103510
08:00+4ююв11490 0.0 103492
11:00+9ю22370 0.0 1034716
14:00+12ююв22320 0.0 10331170
17:00+13ююв33315 0.0 10321295
20:00+9ю22485 0.0 103210